Location: Hamilton
(43.2500°N, 79.8330°W)
Time: 12:24:57
(UTC-04:00)

Amateur Radio Satellites - All Passes

Search period start: 28 May 2017 11:54
Search period end: 29 May 2017 11:54
Location: Hamilton, 43.2500°N, 79.8330°W

Satellite Date Start Highest point End Downlink Frequencies (MHz)
Time Altitude Azimuth
AO-85 28 May 12:02:44 12:05:00 14° 39° (NE) 12:07:17 145.980
YUBILEINY 28 May 12:03:34 12:11:55 43° 72° (ENE) 12:20:12 435.215
EO-88 28 May 12:19:04 12:21:36 18° 293° (WNW) 12:24:07 145.990 - 145.960
NANOSAT C BR1 28 May 12:27:52 12:32:02 79° 259° (W) 12:36:15 145.865
RS-15 28 May 12:30:13 12:42:02 60° 246° (WSW) 12:53:15 29.354- 29.394
POLYITAN 1 28 May 12:34:21 12:38:28 60° 259° (W) 12:42:40 437.675
DUCHIFAT 1 28 May 12:37:32 12:41:40 69° 259° (WSW) 12:45:51 145.980
QB50P2 28 May 12:43:19 12:47:19 43° 261° (W) 12:51:22 145.880/145.840
O/OREOS (USA 219) 28 May 12:43:20 12:46:06 16° 51° (NE) 12:48:51 437.305
BUGSAT 1 28 May 12:48:04 12:51:54 46° 72° (ENE) 12:55:45 437.445
NO-84 28 May 12:52:11 12:54:45 16° 4° (N) 12:57:13 435.350 FM
LO-87 28 May 12:54:59 12:58:22 43° 287° (WNW) 13:01:46 145.935 - 145.965
ESTCUBE 1 28 May 13:03:42 13:08:13 82° 284° (WNW) 13:12:42 437.505/2401.250
EO-79 28 May 13:20:57 13:23:59 19° 267° (W) 13:27:04 145.935-145.965
BEESAT 2 28 May 13:22:27 13:24:21 13° 37° (NE) 13:26:14 435.950
SPROUT 28 May 13:30:01 13:34:12 51° 100° (E) 13:38:22 437.525
Gurwin Techsat 1B 28 May 13:34:21 13:39:08 35° 67° (ENE) 13:43:56 435.225
BEESAT 3 28 May 13:36:58 13:40:38 33° 48° (NE) 13:44:16 437.485
Oscar 19 28 May 13:40:18 13:45:26 64° 72° (ENE) 13:50:35 437.125/150
AO-85 28 May 13:41:49 13:45:51 80° 239° (WSW) 13:50:07 145.980
VELOX 1 28 May 13:50:48 13:55:13 82° 104° (ESE) 13:59:36 145.980
50 SAT 28 May 13:53:55 13:57:12 45° 99° (E) 14:00:28 437.505
YUBILEINY 28 May 14:00:31 14:08:42 45° 273° (W) 14:16:53 435.215
UKube-1 28 May 14:08:17 14:12:05 30° 97° (E) 14:15:52 .
AO-7 28 May 14:12:40 14:19:09 27° 52° (NE) 14:25:40 .
DX 1 28 May 14:19:49 14:24:06 59° 102° (ESE) 14:28:22 434.975-435.025
O/OREOS (USA 219) 28 May 14:21:30 14:25:59 65° 250° (WSW) 14:30:24 437.305
BUGSAT 1 28 May 14:25:20 14:27:31 14° 269° (W) 14:29:43 437.445
NO-84 28 May 14:29:52 14:33:24 29° 25° (NNE) 14:36:39 435.350 FM
ITAMSAT 1 28 May 14:47:29 14:51:38 25° 64° (ENE) 14:55:47 435.822/435.867
RS-15 28 May 14:47:54 14:51:33 12° 268° (W) 14:55:10 29.354- 29.394
BEESAT 2 28 May 14:58:40 15:02:46 82° 56° (NE) 15:06:48 435.950
SPROUT 28 May 15:07:04 15:09:42 16° 296° (WNW) 15:12:20 437.525
Gurwin Techsat 1B 28 May 15:14:24 15:19:05 31° 264° (W) 15:23:48 435.225
BEESAT 3 28 May 15:14:46 15:18:05 25° 246° (WSW) 15:21:21 437.485
Oscar 19 28 May 15:21:55 15:25:11 17° 269° (W) 15:28:27 437.125/150
50 SAT 28 May 15:28:35 15:29:39 11° 296° (WNW) 15:30:43 437.505
VELOX 1 28 May 15:29:44 15:30:59 11° 301° (WNW) 15:32:15 145.980
MOZHAYETS 4 28 May 15:30:11 15:31:58 12° 89° (E) 15:33:45
ITUPSAT 1 28 May 15:32:46 15:36:32 22° 94° (E) 15:40:17 437.325
UKube-1 28 May 15:44:25 15:48:00 26° 293° (WNW) 15:51:33 .
DX 1 28 May 15:57:25 15:59:48 15° 298° (WNW) 16:02:11 434.975-435.025
AO-7 28 May 16:02:48 16:11:06 80° 253° (WSW) 16:19:28 .
BEESAT 28 May 16:04:16 16:08:53 46° 99° (E) 16:13:30 436.000
NO-84 28 May 16:07:28 16:11:08 47° 226° (SW) 16:14:27 435.350 FM
ITAMSAT 1 28 May 16:25:54 16:30:49 44° 261° (W) 16:35:48 435.822/435.867
CUTE-I 28 May 17:01:09 17:02:32 11° 55° (NE) 17:03:55 437.470
MOZHAYETS 4 28 May 17:04:59 17:09:38 73° 285° (WNW) 17:14:14
ITUPSAT 1 28 May 17:09:59 17:14:31 42° 290° (WNW) 17:19:01 437.325
XW-2C 28 May 17:22:17 17:23:29 11° 63° (ENE) 17:24:40 145.795 - 145.815
HO-68 28 May 17:27:55 17:28:45 10° 45° (NE) 17:29:36 435.675
KKS-1 28 May 17:42:28 17:46:41 40° 99° (E) 17:50:52 437.445
BEESAT 28 May 17:42:46 17:46:21 21° 297° (WNW) 17:49:56 436.000
DOVE 4 28 May 17:42:56 17:47:09 39° 71° (ENE) 17:51:10 437.250
CUBESAT XI-V 28 May 17:56:43 18:01:24 73° 102° (ESE) 18:05:59 437.345
LilacSat-2 28 May 18:00:23 18:03:48 31° 70° (ENE) 18:07:15 437.200
AO-7 28 May 18:00:28 18:05:06 16° 272° (W) 18:09:46 .
STARS 28 May 18:07:18 18:11:16 32° 97° (E) 18:15:12 437.465
XW-2D 28 May 18:31:32 18:35:19 73° 76° (ENE) 18:39:11 145.860 - 145.880
CUTE-I 28 May 18:36:22 18:41:39 73° 73° (ENE) 18:46:57 437.470
XW-2B 28 May 18:39:31 18:43:20 88° 77° (ENE) 18:47:13 145.730 - 145.750
NUDT-PHONESAT 28 May 18:42:35 18:46:18 74° 75° (ENE) 18:50:03 437.300
CUTE 1.7 + AOD 2 28 May 18:46:08 18:48:51 17° 64° (ENE) 18:51:35 437.475
XW-2F 28 May 18:50:32 18:54:18 70° 258° (WSW) 18:58:09 145.980 - 146.000
XW-2C 28 May 18:53:22 18:57:08 61° 259° (W) 19:00:58 145.795 - 145.815
KAITUO 1B 28 May 18:54:16 18:58:02 78° 258° (WSW) 19:01:51 145.475/437.950
PCSat 28 May 18:55:31 19:00:26 37° 111° (ESE) 19:05:23 145.827
HO-68 28 May 19:07:57 19:14:46 48° 65° (ENE) 19:21:37 435.675
Tancredo 1 28 May 19:19:19 19:21:23 17° 134° (SE) 19:23:27 437.200
KKS-1 28 May 19:19:39 19:22:58 21° 295° (WNW) 19:26:16 437.445
DOVE 4 28 May 19:21:38 19:24:58 20° 266° (W) 19:28:11 437.250
SEEDS 28 May 19:29:48 19:33:31 30° 69° (ENE) 19:37:15 437.485
LilacSat-2 28 May 19:35:19 19:38:08 19° 267° (W) 19:40:59 437.200
CUBESAT XI-V 28 May 19:35:53 19:38:09 14° 299° (WNW) 19:40:24 437.345
STARS 28 May 19:43:53 19:47:27 25° 294° (WNW) 19:51:03 437.465
CUBEBUG 2 28 May 19:46:23 19:50:07 33° 70° (ENE) 19:53:59 437.445
UWE-3 28 May 19:52:14 19:55:38 24° 67° (ENE) 19:59:08 435.000/436.395/437.385
XW-2A 28 May 20:10:21 20:13:39 61° 259° (W) 20:17:01 145.665 - 145.685
ISS 28 May 20:11:57 20:15:00 35° 139° (SE) 20:18:03 437.550
STRAND 1 28 May 20:14:01 20:18:45 35° 97° (E) 20:23:27 437.568
Oscar 11 28 May 20:15:47 20:18:51 19° 65° (ENE) 20:21:57 .
CUTE-I 28 May 20:19:20 20:22:14 15° 270° (W) 20:25:09 437.470
CUTE 1.7 + AOD 2 28 May 20:20:08 20:24:17 49° 261° (W) 20:28:29 437.475
AAUSAT CUBESAT 2 28 May 20:22:05 20:26:09 53° 73° (ENE) 20:30:13 437.432
PCSat 28 May 20:38:51 20:43:49 36° 310° (NW) 20:48:50 145.827
AO-73 28 May 20:44:05 20:48:06 44° 72° (ENE) 20:52:15 145.935
Tancredo 1 28 May 20:53:48 20:56:51 59° 331° (NNW) 20:59:53 437.200
HO-68 28 May 20:56:13 21:02:38 35° 264° (W) 21:09:07 435.675
ZACube-1 28 May 20:59:17 21:03:30 73° 75° (ENE) 21:07:51 437.345
SEEDS 28 May 21:05:42 21:09:12 25° 266° (W) 21:12:43 437.485
M-CUBED/EXP-1 PRIME 28 May 21:09:24 21:10:08 11° 97° (E) 21:10:52 437.505
CUBEBUG 2 28 May 21:23:37 21:26:50 21° 267° (W) 21:30:08 437.445
EO-88 28 May 21:24:13 21:26:41 17° 66° (ENE) 21:29:10 145.990 - 145.960
UWE-3 28 May 21:28:13 21:31:58 31° 264° (W) 21:35:49 435.000/436.395/437.385
ISS 28 May 21:48:23 21:51:29 37° 337° (NNW) 21:54:36 437.550
Oscar 11 28 May 21:50:33 21:54:41 43° 262° (W) 21:58:51 .
STRAND 1 28 May 21:53:22 21:57:49 30° 294° (WNW) 22:02:14 437.568
DELFI C3 28 May 21:54:35 21:58:30 58° 75° (ENE) 22:02:26 145.870
AAUSAT CUBESAT 2 28 May 21:59:45 22:01:55 14° 270° (W) 22:04:04 437.432
SO-50 28 May 22:19:19 22:23:43 48° 119° (ESE) 22:28:05 436.795
AO-73 28 May 22:21:48 22:24:35 17° 269° (W) 22:27:25 145.935
ESTCUBE 1 28 May 22:30:22 22:32:08 12° 60° (ENE) 22:33:53 437.505/2401.250
Tancredo 1 28 May 22:30:44 22:33:03 19° 350° (N) 22:35:22 437.200
FO-29 28 May 22:38:03 22:44:04 36° 97° (E) 22:50:40 435.910
ZACube-1 28 May 22:39:45 22:40:20 10° 273° (W) 22:40:55 437.345
M-CUBED/EXP-1 PRIME 28 May 22:41:46 22:44:52 40° 293° (WNW) 22:47:56 437.505
PRISM 28 May 22:52:13 22:56:04 40° 99° (E) 22:59:53 437.425
EO-88 28 May 22:56:48 23:00:07 32° 263° (W) 23:03:28 145.990 - 145.960
TIGRISAT 28 May 22:56:50 23:01:09 37° 97° (E) 23:05:29 435.000
ISS 28 May 23:26:12 23:28:38 19° 357° (N) 23:31:05 437.550
UNISAT 6 28 May 23:29:06 23:33:46 87° 103° (ESE) 23:38:27 437.425
LO-87 28 May 23:31:28 23:35:00 81° 77° (ENE) 23:38:33 145.935 - 145.965
DELFI C3 28 May 23:32:21 23:33:38 11° 270° (W) 23:34:57 145.870
SO-50 29 May 00:00:38 00:04:24 24° 317° (NW) 00:08:08 436.795
ESTCUBE 1 29 May 00:03:44 00:08:16 80° 256° (WSW) 00:12:50 437.505/2401.250
Tancredo 1 29 May 00:07:17 00:09:35 19° 10° (N) 00:11:53 437.200
NANOSAT C BR1 29 May 00:12:12 00:14:45 15° 92° (E) 00:17:16 145.865
POLYITAN 1 29 May 00:18:38 00:21:49 20° 93° (E) 00:24:59 437.675
DUCHIFAT 1 29 May 00:21:16 00:24:06 17° 92° (E) 00:26:55 145.980
FO-29 29 May 00:23:01 00:29:09 46° 291° (WNW) 00:35:58 435.910
SPROUT 29 May 00:24:06 00:28:06 43° 71° (ENE) 00:32:08 437.525
QB50P2 29 May 00:27:07 00:30:45 26° 95° (E) 00:34:22 145.880/145.840
50 SAT 29 May 00:27:34 00:30:11 21° 68° (ENE) 00:32:48 437.505
PRISM 29 May 00:28:18 00:31:03 18° 295° (WNW) 00:33:47 437.425
TIGRISAT 29 May 00:33:55 00:37:38 24° 294° (WNW) 00:41:22 435.000
AIST 2D 29 May 00:44:10 00:47:45 86° 102° (ESE) 00:51:19 435.315
RS-15 29 May 00:45:11 00:53:41 23° 98° (E) 01:02:15 29.354- 29.394
VELOX 1 29 May 00:48:36 00:53:01 82° 75° (ENE) 00:57:27 145.980
EO-79 29 May 01:02:54 01:07:09 60° 102° (ESE) 01:11:21 145.935-145.965
ISS 29 May 01:03:04 01:05:55 26° 17° (NNE) 01:08:45 437.550
UKube-1 29 May 01:03:36 01:07:20 29° 68° (ENE) 01:11:05 .
YUBILEINY 29 May 01:05:47 01:13:57 47° 88° (E) 01:22:11 435.215
UNISAT 6 29 May 01:08:11 01:09:47 12° 300° (WNW) 01:11:22 437.425
DX 1 29 May 01:15:58 01:20:13 58° 73° (ENE) 01:24:30 434.975-435.025
Tancredo 1 29 May 01:42:47 01:45:49 57° 29° (NNE) 01:48:50 437.200
NANOSAT C BR1 29 May 01:46:36 01:50:42 49° 288° (WNW) 01:54:49 145.865
Gurwin Techsat 1B 29 May 01:51:20 01:53:20 12° 88° (E) 01:55:19 435.225
Oscar 19 29 May 01:51:41 01:55:27 20° 92° (E) 01:59:12 437.125/150
POLYITAN 1 29 May 01:53:45 01:57:43 37° 290° (WNW) 02:01:40 437.675
DUCHIFAT 1 29 May 01:55:56 01:59:58 43° 289° (WNW) 02:03:59 145.980
50 SAT 29 May 02:00:06 02:02:55 23° 264° (W) 02:05:46 437.505
SPROUT 29 May 02:01:26 02:04:13 17° 268° (W) 02:07:01 437.525
QB50P2 29 May 02:02:49 02:06:29 28° 292° (WNW) 02:10:09 145.880/145.840
BUGSAT 1 29 May 02:03:25 02:07:34 71° 103° (ESE) 02:11:45 437.445
MOZHAYETS 4 29 May 02:32:59 02:35:26 14° 61° (ENE) 02:37:53
ISS 29 May 02:39:23 02:42:39 71° 215° (SW) 02:45:54 437.550
UKube-1 29 May 02:39:43 02:43:20 26° 264° (W) 02:46:59 .
EO-79 29 May 02:40:13 02:42:25 14° 298° (WNW) 02:44:36 145.935-145.965
ITUPSAT 1 29 May 02:40:19 02:44:27 30° 66° (ENE) 02:48:36 437.325
RS-15 29 May 02:52:09 03:04:17 84° 120° (ESE) 03:16:43 29.354- 29.394
DX 1 29 May 02:54:35 02:56:46 14° 269° (W) 02:58:56 434.975-435.025
O/OREOS (USA 219) 29 May 02:58:11 03:00:11 13° 98° (E) 03:02:11 437.305
YUBILEINY 29 May 03:02:47 03:10:51 40° 289° (WNW) 03:19:01 435.215
BEESAT 29 May 03:11:23 03:16:04 60° 72° (ENE) 03:20:47 436.000
Tancredo 1 29 May 03:19:10 03:21:17 17° 226° (SW) 03:23:23 437.200
Gurwin Techsat 1B 29 May 03:28:37 03:33:58 87° 287° (WNW) 03:39:17 435.225
Oscar 19 29 May 03:30:04 03:35:04 52° 289° (WNW) 03:40:01 437.125/150
BUGSAT 1 29 May 03:40:56 03:42:22 12° 299° (WNW) 03:43:49 437.445
PCSat 29 May 03:41:54 03:47:00 39° 51° (NE) 03:52:04 145.827
AO-85 29 May 03:57:59 04:01:17 23° 114° (ESE) 04:04:29 145.980
AO-7 29 May 04:03:37 04:10:58 33° 96° (E) 04:18:16 .
MOZHAYETS 4 29 May 04:07:26 04:12:01 68° 258° (WSW) 04:16:40
ITUPSAT 1 29 May 04:17:58 04:22:12 31° 264° (W) 04:26:28 437.325
O/OREOS (USA 219) 29 May 04:34:25 04:38:59 68° 295° (WNW) 04:43:34 437.305
ITAMSAT 1 29 May 04:37:14 04:42:24 59° 101° (ESE) 04:47:32 435.822/435.867
KKS-1 29 May 04:41:17 04:45:27 43° 71° (ENE) 04:49:39 437.445
BEESAT 29 May 04:51:28 04:54:14 15° 269° (W) 04:57:01 436.000
BEESAT 2 29 May 04:54:18 04:54:45 10° 108° (ESE) 04:55:12 435.950
CUBESAT XI-V 29 May 05:00:31 05:05:14 79° 74° (ENE) 05:09:57 437.345
BEESAT 3 29 May 05:04:35 05:08:15 37° 117° (ESE) 05:11:58 437.485
STARS 29 May 05:04:46 05:08:39 33° 68° (ENE) 05:12:34 437.465
RS-15 29 May 05:07:02 05:18:18 40° 328° (NNW) 05:29:41 29.354- 29.394
Gurwin Techsat 1B 29 May 05:10:42 05:13:06 13° 303° (WNW) 05:15:30 435.225
SO-50 29 May 05:10:47 05:12:27 12° 32° (NNE) 05:14:08 436.795
PCSat 29 May 05:25:29 05:30:19 33° 250° (WSW) 05:35:07 145.827
AO-85 29 May 05:37:43 05:41:31 35° 311° (NW) 05:45:11 145.980
AO-7 29 May 05:55:57 06:04:06 60° 295° (WNW) 06:12:16 .
ITAMSAT 1 29 May 06:17:43 06:21:24 20° 299° (WNW) 06:25:06 435.822/435.867
KKS-1 29 May 06:19:05 06:22:12 19° 267° (W) 06:25:20 437.445
XW-2F 29 May 06:23:44 06:24:56 11° 90° (E) 06:26:07 145.980 - 146.000
XW-2C 29 May 06:26:25 06:28:14 13° 91° (E) 06:30:03 145.795 - 145.815
BEESAT 2 29 May 06:27:53 06:31:52 76° 305° (NW) 06:35:55 435.950
STARS 29 May 06:41:31 06:45:02 24° 265° (W) 06:48:34 437.465
CUBESAT XI-V 29 May 06:41:43 06:43:09 11° 272° (W) 06:44:35 437.345
BEESAT 3 29 May 06:42:41 06:45:57 24° 315° (NW) 06:49:16 437.485
SO-50 29 May 06:49:25 06:53:53 58° 52° (NE) 06:58:20 436.795
CUTE-I 29 May 06:52:46 06:57:14 26° 94° (E) 07:01:41 437.470
LilacSat-2 29 May 07:06:17 07:09:58 40° 98° (E) 07:13:36 437.200
DOVE 4 29 May 07:17:21 07:21:33 85° 286° (WNW) 07:25:53 437.250
NO-84 29 May 07:25:11 07:28:14 19° 126° (SE) 07:31:16 435.350 FM
RS-15 29 May 07:25:39 07:35:33 26° 2° (N) 07:45:18 29.354- 29.394
STRAND 1 29 May 07:30:45 07:35:43 56° 71° (ENE) 07:40:44 437.568
XW-2D 29 May 07:37:00 07:40:52 86° 283° (WNW) 07:44:42 145.860 - 145.880
XW-2B 29 May 07:45:03 07:48:54 71° 284° (WNW) 07:52:43 145.730 - 145.750
NUDT-PHONESAT 29 May 07:45:39 07:49:26 90° 291° (WNW) 07:53:12 437.300
AO-7 29 May 07:50:52 07:55:11 15° 317° (NW) 07:59:31 .
M-CUBED/EXP-1 PRIME 29 May 07:54:23 07:57:38 23° 63° (ENE) 08:00:41 437.505
XW-2F 29 May 07:55:38 07:59:24 54° 286° (WNW) 08:03:07 145.980 - 146.000
KAITUO 1B 29 May 07:58:17 08:02:04 61° 285° (WNW) 08:05:47 145.475/437.950
XW-2C 29 May 07:58:58 08:02:42 47° 287° (WNW) 08:06:23 145.795 - 145.815
CUTE 1.7 + AOD 2 29 May 08:04:11 08:07:46 26° 95° (E) 08:11:18 437.475
BEESAT 2 29 May 08:08:42 08:10:21 12° 325° (NW) 08:11:59 435.950
HO-68 29 May 08:21:44 08:28:37 45° 99° (E) 08:35:26 435.675
SO-50 29 May 08:30:59 08:33:53 17° 250° (WSW) 08:36:48 436.795
CUTE-I 29 May 08:32:24 08:37:24 42° 292° (WNW) 08:42:24 437.470
LilacSat-2 29 May 08:41:28 08:43:56 16° 295° (WNW) 08:46:22 437.200
SEEDS 29 May 08:47:28 08:51:34 49° 99° (E) 08:55:37 437.485
ZACube-1 29 May 08:47:44 08:50:13 14° 90° (E) 08:52:41 437.345
FO-29 29 May 08:55:26 08:57:53 13° 56° (NE) 09:00:24 435.910
NO-84 29 May 09:01:04 09:05:28 75° 322° (NW) 09:09:45 435.350 FM
XW-2A 29 May 09:03:35 09:07:01 68° 284° (WNW) 09:10:27 145.665 - 145.685
CUBEBUG 2 29 May 09:11:27 09:16:05 70° 102° (ESE) 09:20:46 437.445
STRAND 1 29 May 09:11:48 09:15:16 18° 269° (W) 09:18:45 437.568
UWE-3 29 May 09:15:41 09:20:10 47° 99° (E) 09:24:40 435.000/436.395/437.385
M-CUBED/EXP-1 PRIME 29 May 09:28:15 09:31:57 31° 257° (WSW) 09:35:26 437.505
Oscar 11 29 May 09:36:38 09:40:31 31° 96° (E) 09:44:23 .
AAUSAT CUBESAT 2 29 May 09:38:14 09:42:24 87° 104° (ESE) 09:46:30 437.432
CUTE 1.7 + AOD 2 29 May 09:39:53 09:43:34 29° 291° (WNW) 09:47:12 437.475
RS-15 29 May 09:41:01 09:52:33 42° 35° (NE) 10:03:36 29.354- 29.394
PRISM 29 May 09:42:15 09:45:58 33° 70° (ENE) 09:49:42 437.425
TIGRISAT 29 May 09:56:36 10:00:28 35° 70° (ENE) 10:04:27 435.000
AO-73 29 May 10:06:27 10:11:02 84° 103° (ESE) 10:15:37 145.935
HO-68 29 May 10:09:41 10:16:12 38° 298° (WNW) 10:22:41 435.675
ZACube-1 29 May 10:22:20 10:26:51 61° 286° (WNW) 10:31:22 437.345
SEEDS 29 May 10:24:16 10:26:51 16° 296° (WNW) 10:29:24 437.485
EO-88 29 May 10:24:51 10:27:30 19° 93° (E) 10:30:08 145.990 - 145.960
UNISAT 6 29 May 10:28:45 10:33:02 84° 78° (ENE) 10:37:27 437.425
FO-29 29 May 10:36:58 10:42:09 85° 257° (WSW) 10:47:36 435.910
NO-84 29 May 10:40:11 10:43:38 22° 341° (NNW) 10:46:58 435.350 FM
CUBEBUG 2 29 May 10:49:43 10:52:09 14° 298° (WNW) 10:54:35 437.445
UWE-3 29 May 10:52:58 10:56:16 20° 295° (WNW) 10:59:36 435.000/436.395/437.385
DELFI C3 29 May 11:05:04 11:09:01 84° 101° (E) 11:12:55 145.870
NANOSAT C BR1 29 May 11:05:55 11:08:02 14° 62° (ENE) 11:10:11 145.865
POLYITAN 1 29 May 11:12:34 11:15:23 18° 64° (ENE) 11:18:13 437.675
Oscar 11 29 May 11:12:57 11:16:31 25° 293° (WNW) 11:20:04 .
DUCHIFAT 1 29 May 11:14:35 11:17:01 15° 63° (ENE) 11:19:26 145.980
YUBILEINY 29 May 11:14:42 11:21:41 25° 64° (ENE) 11:28:36 435.215
PRISM 29 May 11:18:11 11:21:19 21° 266° (W) 11:24:28 437.425
AIST 2D 29 May 11:19:23 11:22:35 33° 72° (ENE) 11:25:49 435.315
QB50P2 29 May 11:20:50 11:24:09 23° 66° (ENE) 11:27:30 145.880/145.840
TIGRISAT 29 May 11:33:56 11:37:16 22° 267° (W) 11:40:39 435.000
AO-73 29 May 11:45:00 11:46:35 12° 300° (WNW) 11:48:10 145.935
